Location: Petruro
(41.0333°N, 14.7833°E)
Time: 08:25:08
(UTC+00:00)

USA 229 DEB - Pass Details

Date: 20 June 2021
Orbit: 955 x 1257 km, 63.4° (Epoch: 25 July)

Event Time Altitude Azimuth Distance (km) Brightness Sun altitude
Exits shadow 00:22:26 23° 257° (WSW) 1,953 4.8 -22.9°
Maximum altitude 00:25:59 43° 314° (NW) 1,404 4.4 -22.7°
Drops below altitude 10° 00:32:26 10° 25° (NNE) 2,910 7.1 -22.2°
Sets 00:35:21 0° 32° (NNE) 3,917 8.1 -22.0°
